TimeEDT,TemperatureF,Dew PointF,Humidity,Sea Level PressureIn,VisibilityMPH,Wind Direction,Wind SpeedMPH,Gust SpeedMPH,PrecipitationIn,Events,Conditions,WindDirDegrees,DateUTC
12:13 AM,24.8,8.6,50,30.32,10.0,Calm,Calm,-,N/A,,Mostly Cloudy,0,2014-03-24 04:13:00
12:33 AM,23.0,10.4,59,30.32,10.0,Calm,Calm,-,N/A,,Scattered Clouds,0,2014-03-24 04:33:00
12:53 AM,21.2,10.4,63,30.31,10.0,Calm,Calm,-,N/A,,Clear,0,2014-03-24 04:53:00
1:13 AM,21.2,12.2,68,30.31,10.0,Calm,Calm,-,N/A,,Mostly Cloudy,0,2014-03-24 05:13:00
1:34 AM,21.2,12.2,68,30.31,10.0,Calm,Calm,-,N/A,,Mostly Cloudy,0,2014-03-24 05:34:00
1:54 AM,21.2,12.2,68,30.31,10.0,Calm,Calm,-,N/A,,Scattered Clouds,0,2014-03-24 05:54:00
2:14 AM,21.2,12.2,68,30.31,10.0,Calm,Calm,-,N/A,,Clear,0,2014-03-24 06:14:00
2:34 AM,21.2,14.0,74,30.31,10.0,Calm,Calm,-,N/A,,Clear,0,2014-03-24 06:34:00
2:54 AM,21.2,15.8,80,30.31,10.0,Calm,Calm,-,N/A,,Clear,0,2014-03-24 06:54:00
3:14 AM,21.2,14.0,74,30.31,10.0,Calm,Calm,-,N/A,,Clear,0,2014-03-24 07:14:00
3:34 AM,19.4,14.0,80,30.31,10.0,Calm,Calm,-,N/A,,Clear,0,2014-03-24 07:34:00
3:54 AM,19.4,14.0,80,30.31,10.0,Calm,Calm,-,N/A,,Clear,0,2014-03-24 07:54:00
4:14 AM,19.4,12.2,74,30.30,10.0,Calm,Calm,-,N/A,,Clear,0,2014-03-24 08:14:00
4:35 AM,19.4,12.2,74,30.30,10.0,Calm,Calm,-,N/A,,Clear,0,2014-03-24 08:35:00
4:55 AM,19.4,12.2,74,30.30,10.0,Calm,Calm,-,N/A,,Clear,0,2014-03-24 08:55:00
5:15 AM,19.4,12.2,74,30.31,10.0,Calm,Calm,-,N/A,,Clear,0,2014-03-24 09:15:00
5:35 AM,19.4,10.4,68,30.31,10.0,Calm,Calm,-,N/A,,Clear,0,2014-03-24 09:35:00
5:55 AM,19.4,10.4,68,30.31,10.0,Calm,Calm,-,N/A,,Clear,0,2014-03-24 09:55:00
6:15 AM,17.6,10.4,73,30.31,10.0,Calm,Calm,-,N/A,,Clear,0,2014-03-24 10:15:00
6:35 AM,17.6,10.4,73,30.31,10.0,Calm,Calm,-,N/A,,Clear,0,2014-03-24 10:35:00
6:55 AM,17.6,10.4,73,30.32,10.0,Calm,Calm,-,N/A,,Clear,0,2014-03-24 10:55:00
7:15 AM,17.6,10.4,73,30.32,10.0,NW,5.8,-,N/A,,Clear,310,2014-03-24 11:15:00
7:36 AM,17.6,10.4,73,30.32,10.0,Calm,Calm,-,N/A,,Clear,0,2014-03-24 11:36:00
7:56 AM,17.6,10.4,73,30.32,10.0,Calm,Calm,-,N/A,,Clear,0,2014-03-24 11:56:00
8:16 AM,17.6,10.4,73,30.32,10.0,Calm,Calm,-,N/A,,Clear,0,2014-03-24 12:16:00
8:36 AM,19.4,10.4,68,30.32,10.0,Calm,Calm,-,N/A,,Clear,0,2014-03-24 12:36:00
8:56 AM,19.4,8.6,63,30.31,10.0,Calm,Calm,-,N/A,,Clear,0,2014-03-24 12:56:00
9:16 AM,19.4,8.6,63,30.32,10.0,Calm,Calm,-,N/A,,Clear,0,2014-03-24 13:16:00
9:36 AM,19.4,8.6,63,30.32,10.0,Calm,Calm,-,N/A,,Clear,0,2014-03-24 13:36:00
9:56 AM,21.2,8.6,58,30.31,10.0,Calm,Calm,-,N/A,,Clear,0,2014-03-24 13:56:00
10:16 AM,21.2,8.6,58,30.31,10.0,Calm,Calm,-,N/A,,Clear,0,2014-03-24 14:16:00
10:36 AM,23.0,8.6,54,30.29,10.0,Calm,Calm,-,N/A,,Clear,0,2014-03-24 14:36:00
10:52 AM,23.0,6.8,50,30.29,10.0,Calm,Calm,-,N/A,,Clear,0,2014-03-24 14:52:00
11:12 AM,23.0,6.8,50,30.28,10.0,Calm,Calm,-,N/A,,Clear,0,2014-03-24 15:12:00
11:32 AM,24.8,6.8,46,30.28,10.0,Calm,Calm,-,N/A,,Clear,0,2014-03-24 15:32:00
11:52 AM,24.8,5.0,43,30.28,10.0,Calm,Calm,-,N/A,,Clear,0,2014-03-24 15:52:00
12:12 PM,26.6,6.8,43,30.27,10.0,Calm,Calm,-,N/A,,Mostly Cloudy,0,2014-03-24 16:12:00
12:32 PM,26.6,6.8,43,30.27,10.0,Calm,Calm,-,N/A,,Overcast,0,2014-03-24 16:32:00
12:52 PM,26.6,8.6,47,30.26,10.0,Calm,Calm,-,N/A,,Overcast,0,2014-03-24 16:52:00
1:12 PM,28.4,8.6,43,30.26,10.0,WNW,6.9,-,N/A,,Mostly Cloudy,300,2014-03-24 17:12:00
1:32 PM,28.4,10.4,47,30.25,10.0,WSW,10.4,17.3,N/A,,Mostly Cloudy,250,2014-03-24 17:32:00
1:53 PM,28.4,8.6,43,30.24,10.0,SW,8.1,23.0,N/A,,Mostly Cloudy,230,2014-03-24 17:53:00
2:13 PM,28.4,10.4,47,30.23,10.0,West,12.7,18.4,N/A,,Scattered Clouds,270,2014-03-24 18:13:00
2:33 PM,28.4,10.4,47,30.22,10.0,West,10.4,18.4,N/A,,Mostly Cloudy,260,2014-03-24 18:33:00
2:53 PM,28.4,12.2,51,30.20,10.0,WSW,15.0,19.6,N/A,,Overcast,250,2014-03-24 18:53:00
3:13 PM,30.2,12.2,47,30.18,10.0,WSW,10.4,16.1,N/A,,Overcast,250,2014-03-24 19:13:00
3:33 PM,30.2,12.2,47,30.18,10.0,WSW,13.8,17.3,N/A,,Mostly Cloudy,250,2014-03-24 19:33:00
3:53 PM,28.4,12.2,51,30.17,10.0,WNW,12.7,20.7,N/A,,Overcast,290,2014-03-24 19:53:00
4:13 PM,28.4,14.0,55,30.17,10.0,West,15.0,18.4,N/A,,Overcast,260,2014-03-24 20:13:00
4:34 PM,30.2,15.8,55,30.15,10.0,WSW,13.8,-,N/A,,Overcast,240,2014-03-24 20:34:00
4:54 PM,30.2,15.8,55,30.14,10.0,SW,11.5,-,N/A,,Overcast,230,2014-03-24 20:54:00
5:14 PM,30.2,15.8,55,30.14,10.0,WSW,12.7,18.4,N/A,,Overcast,250,2014-03-24 21:14:00
5:34 PM,30.2,14.0,51,30.13,10.0,West,13.8,17.3,N/A,,Overcast,260,2014-03-24 21:34:00
5:54 PM,30.2,14.0,51,30.13,10.0,West,11.5,-,N/A,,Mostly Cloudy,280,2014-03-24 21:54:00
6:14 PM,32.0,12.2,44,30.12,10.0,West,12.7,19.6,N/A,,Mostly Cloudy,270,2014-03-24 22:14:00
6:34 PM,30.2,12.2,47,30.12,10.0,West,12.7,-,N/A,,Mostly Cloudy,270,2014-03-24 22:34:00
6:54 PM,30.2,12.2,47,30.12,10.0,West,13.8,-,N/A,,Mostly Cloudy,280,2014-03-24 22:54:00
7:14 PM,30.2,12.2,47,30.11,10.0,West,11.5,-,N/A,,Mostly Cloudy,280,2014-03-24 23:14:00
7:35 PM,30.2,12.2,47,30.11,10.0,West,13.8,-,N/A,,Scattered Clouds,270,2014-03-24 23:35:00
7:55 PM,30.2,12.2,47,30.11,10.0,West,11.5,-,N/A,,Scattered Clouds,280,2014-03-24 23:55:00
8:15 PM,28.4,12.2,51,30.10,10.0,West,9.2,-,N/A,,Clear,280,2014-03-25 00:15:00
8:35 PM,28.4,12.2,51,30.10,10.0,West,10.4,-,N/A,,Clear,270,2014-03-25 00:35:00
8:55 PM,28.4,12.2,51,30.11,10.0,WNW,10.4,16.1,N/A,,Clear,290,2014-03-25 00:55:00
9:15 PM,28.4,10.4,47,30.11,10.0,West,12.7,-,N/A,,Clear,280,2014-03-25 01:15:00
9:35 PM,28.4,10.4,47,30.11,10.0,WNW,9.2,-,N/A,,Clear,290,2014-03-25 01:35:00
9:55 PM,26.6,12.2,55,30.11,10.0,WNW,6.9,-,N/A,,Clear,290,2014-03-25 01:55:00
10:15 PM,26.6,12.2,55,30.10,10.0,Calm,Calm,-,N/A,,Clear,0,2014-03-25 02:15:00
10:35 PM,26.6,12.2,55,30.10,10.0,Calm,Calm,-,N/A,,Clear,0,2014-03-25 02:35:00
10:55 PM,26.6,12.2,55,30.10,10.0,Calm,Calm,-,N/A,,Clear,0,2014-03-25 02:55:00
11:16 PM,26.6,15.8,64,30.09,10.0,Calm,Calm,-,N/A,,Clear,0,2014-03-25 03:16:00
11:36 PM,24.8,15.8,69,30.09,10.0,Calm,Calm,-,N/A,,Clear,0,2014-03-25 03:36:00
11:56 PM,24.8,15.8,69,30.09,10.0,Calm,Calm,-,N/A,,Clear,0,2014-03-25 03:56:00